period_start,C,m1,H,J0,J1,J2,J3,J4,J5,JA,JB,JC,JD,JJ,JK,JN,#
2016-07-19 00:03:07,0.01,1.36,0.00,26.52,30.30,32.80,14.12,44.11,1010.22,2025.03,3020.93,2732.11,3093.99,599.93,585.39,47.80,0000 0000 0000 0000 000000
2016-07-19 00:08:09,0.01,1.37,0.00,26.56,30.32,32.81,14.12,44.10,1010.23,2025.00,3020.35,2732.00,3093.80,600.14,585.32,47.85,0000 0000 0000 0000 000000
2016-07-19 00:13:10,0.01,1.37,0.00,26.62,30.35,32.81,14.15,44.10,1010.26,2025.00,3019.91,2731.85,3093.01,600.04,585.19,47.90,0000 0000 0000 0000 000000
2016-07-19 00:18:11,0.44,1.38,0.00,26.68,30.36,32.81,14.14,44.41,1010.26,2025.00,3015.05,2725.89,3086.82,600.11,585.14,47.95,0000 0000 0000 0000 000000
2016-07-19 00:23:13,0.01,1.39,0.00,26.72,30.39,32.81,14.17,44.29,1010.27,2024.91,3014.03,2725.00,3085.24,600.20,585.13,48.00,0000 0000 0000 0000 000000
2016-07-19 00:28:14,-0.02,1.39,0.00,26.77,30.41,32.85,14.13,44.32,1010.23,2024.56,3013.75,2724.83,3085.01,600.15,584.97,48.05,0000 0000 0000 0000 000000
2016-07-19 00:33:15,0.01,1.39,0.00,26.83,30.44,32.87,14.08,44.17,1010.23,2024.29,3013.09,2724.22,3084.93,599.77,584.52,48.10,0000 0000 0000 0000 000000
2016-07-19 00:38:17,0.08,1.39,0.00,26.88,30.46,32.88,14.20,44.44,1010.24,2024.11,3012.37,2723.42,3083.67,600.12,584.73,48.15,0000 0000 0000 0000 000000
2016-07-19 00:43:18,0.04,1.40,0.00,26.92,30.49,32.90,14.09,44.12,1010.24,2024.00,3011.03,2722.04,3082.04,599.87,584.43,48.20,0000 0000 0000 0000 000000
2016-07-19 00:48:19,0.01,1.40,0.00,26.98,30.52,32.93,14.10,44.26,1010.23,2024.00,3010.74,2721.96,3081.87,600.07,584.56,48.25,0000 0000 0000 0000 000000
2016-07-19 00:53:20,0.03,1.40,0.00,27.03,30.55,32.95,14.17,44.49,1010.23,2023.98,3010.10,2721.60,3081.13,600.05,584.38,48.30,0000 0000 0000 0000 000000
2016-07-19 00:58:22,0.01,1.40,0.00,27.09,30.58,32.99,14.18,44.44,1010.24,2023.88,3010.00,2721.11,3081.00,600.26,584.46,48.35,0000 0000 0000 0000 000000
2016-07-19 01:03:23,-0.04,1.40,0.00,27.15,30.61,33.01,14.07,44.47,1010.25,2023.48,3009.86,2721.01,3080.86,599.89,584.06,48.40,0000 0000 0000 0000 000000
2016-07-19 01:08:24,0.00,1.40,0.00,27.22,30.65,33.04,14.01,44.42,1010.20,2023.06,3009.21,2720.94,3080.15,599.74,583.74,48.45,0000 0000 0000 0000 000000
2016-07-19 01:13:26,0.02,1.40,0.00,27.27,30.68,33.10,14.12,44.38,1010.18,2023.01,3008.98,2720.40,3080.00,599.99,583.87,48.50,0000 0000 0000 0000 000000
2016-07-19 01:18:27,0.02,1.40,0.00,27.32,30.72,33.12,14.11,44.38,1010.13,2023.00,3008.45,2720.01,3079.66,600.04,583.85,48.55,0000 0000 0000 0000 000000
2016-07-19 01:23:28,0.01,1.40,0.00,27.37,30.76,33.17,14.10,44.37,1010.11,2022.99,3008.01,2719.95,3079.03,599.89,583.51,48.61,0000 0000 0000 0000 000000
2016-07-19 01:28:30,0.03,1.40,0.00,27.43,30.80,33.20,14.12,44.38,1010.10,2022.97,3007.62,2719.27,3078.88,599.69,583.19,48.66,0000 0000 0000 0000 000000
2016-07-19 01:33:31,-0.01,1.40,0.00,27.51,30.84,33.24,14.14,44.29,1010.02,2022.73,3007.02,2719.00,3078.09,600.58,583.85,48.71,0000 0000 0000 0000 000000
2016-07-19 01:38:32,-0.02,1.40,0.00,27.53,30.88,33.28,14.15,44.33,1010.07,2022.19,3006.80,2718.66,3077.94,600.33,583.43,48.76,0000 0000 0000 0000 000000
2016-07-19 01:43:34,0.36,1.41,0.00,27.59,30.92,33.31,14.11,44.13,1010.14,2022.02,3002.95,2714.81,3073.32,600.18,583.31,48.81,0000 0000 0000 0000 000000
2016-07-19 01:48:35,0.04,1.42,0.00,27.62,30.97,33.36,14.12,44.28,1010.11,2022.00,3001.01,2712.65,3071.01,600.44,583.55,48.86,0000 0000 0000 0000 000000
2016-07-19 01:53:36,0.03,1.42,0.00,27.68,31.01,33.39,14.05,44.24,1009.92,2021.99,3000.45,2712.04,3070.52,599.97,582.84,48.91,0000 0000 0000 0000 000000
2016-07-19 01:58:37,-0.00,1.42,0.00,27.72,31.05,33.45,14.05,44.15,1009.86,2021.92,3000.00,2711.98,3070.02,599.99,582.67,48.96,0000 0000 0000 0000 000000
2016-07-19 02:03:38,0.00,1.42,0.00,27.77,31.09,33.50,14.08,44.19,1010.10,2021.53,2999.49,2711.40,3069.71,599.80,582.75,49.01,0000 0000 0000 0000 000000
2016-07-19 02:08:39,-0.01,1.42,0.00,27.81,31.13,33.54,14.10,44.13,1010.16,2021.05,2998.76,2710.98,3069.02,600.14,582.86,49.06,0000 0000 0000 0000 000000
2016-07-19 02:13:41,0.05,1.42,0.00,27.85,31.17,33.57,14.11,44.11,1010.17,2021.00,2998.05,2710.34,3068.34,600.21,582.91,49.11,0000 0000 0000 0000 000000
2016-07-19 02:18:42,0.01,1.43,0.00,27.93,31.21,33.61,14.07,43.95,1010.22,2021.00,2997.72,2710.00,3068.00,600.02,582.51,49.16,0000 0000 0000 0000 000000
2016-07-19 02:23:44,0.02,1.43,0.00,27.97,31.25,33.65,14.09,43.95,1010.21,2020.95,2997.03,2709.76,3067.62,600.34,582.74,49.21,0000 0000 0000 0000 000000
2016-07-19 02:28:45,0.03,1.43,0.00,28.02,31.29,33.70,14.02,44.00,1010.21,2020.90,2996.58,2709.11,3067.03,600.28,582.67,49.26,0000 0000 0000 0000 000000
2016-07-19 02:33:46,-0.04,1.43,0.00,28.07,31.33,33.74,14.09,44.04,1010.24,2020.48,2996.00,2708.98,3066.68,600.13,582.42,49.31,0000 0000 0000 0000 000000
2016-07-19 02:38:47,0.02,1.43,0.00,28.11,31.37,33.78,14.06,43.98,1010.16,2020.06,2995.34,2708.35,3066.02,599.88,582.08,49.36,0000 0000 0000 0000 000000
2016-07-19 02:43:48,0.02,1.43,0.00,28.17,31.41,33.81,13.95,43.87,1010.22,2020.00,2994.87,2707.99,3065.54,599.79,582.03,49.41,0000 0000 0000 0000 000000
2016-07-19 02:48:50,0.04,1.43,0.00,28.20,31.46,33.85,14.06,43.97,1010.25,2020.00,2994.07,2707.43,3065.00,600.07,582.12,49.46,0000 0000 0000 0000 000000
2016-07-19 02:53:51,0.02,1.43,0.00,28.25,31.51,33.90,14.00,43.93,1010.23,2019.96,2993.65,2707.01,3064.40,599.90,581.88,49.52,0000 0000 0000 0000 000000
2016-07-19 02:58:52,-0.03,1.43,0.00,28.28,31.55,33.94,14.07,43.85,1010.12,2019.59,2993.03,2706.75,3064.00,600.12,581.97,49.57,0000 0000 0000 0000 000000
2016-07-19 03:03:53,0.01,1.43,0.00,28.34,31.60,33.99,14.04,43.99,1010.15,2019.08,2992.46,2706.05,3063.42,600.15,581.84,49.62,0000 0000 0000 0000 000000
2016-07-19 03:08:55,0.01,1.43,0.00,28.38,31.64,34.04,14.00,44.19,1010.12,2019.01,2991.98,2705.81,3062.97,599.83,581.49,49.67,0000 0000 0000 0000 000000
2016-07-19 03:13:56,0.05,1.43,0.00,28.43,31.69,34.09,14.02,44.31,1010.15,2019.00,2991.25,2705.10,3062.26,599.98,581.57,49.72,0000 0000 0000 0000 000000
2016-07-19 03:18:57,0.00,1.44,0.00,28.48,31.73,34.13,14.05,44.31,1010.13,2018.96,2990.85,2704.99,3061.99,600.07,581.56,49.77,0000 0000 0000 0000 000000
2016-07-19 03:23:58,0.02,1.44,0.00,28.54,31.78,34.16,14.07,44.15,1010.09,2018.68,2990.08,2704.48,3061.38,600.21,581.53,49.82,0000 0000 0000 0000 000000
2016-07-19 03:28:59,-0.03,1.43,0.00,28.60,31.82,34.21,14.03,44.13,1010.13,2018.09,2989.61,2704.01,3060.95,600.19,581.42,49.87,0000 0000 0000 0000 000000
2016-07-19 03:34:00,0.03,1.44,0.00,28.63,31.87,34.27,14.02,44.11,1010.06,2018.00,2989.01,2703.69,3060.20,599.95,581.09,49.92,0000 0000 0000 0000 000000
2016-07-19 03:39:02,0.03,1.44,0.00,28.68,31.91,34.30,13.98,44.08,1009.99,2017.99,2988.40,2703.04,3059.84,600.03,581.03,49.97,0000 0000 0000 0000 000000
2016-07-19 03:44:03,0.01,1.44,0.00,28.73,31.96,34.36,14.08,43.97,1009.97,2017.93,2988.00,2702.85,3059.09,600.06,580.98,50.02,0000 0000 0000 0000 000000
2016-07-19 03:49:05,-0.00,1.44,0.00,28.80,32.01,34.39,13.95,43.98,1010.06,2017.69,2987.46,2702.18,3058.92,599.75,580.56,50.07,0000 0000 0000 0000 000000
2016-07-19 03:54:06,-0.01,1.44,0.00,28.84,32.06,34.45,14.01,44.02,1010.12,2017.10,2986.82,2701.95,3058.16,599.66,580.47,50.12,0000 0000 0000 0000 000000
2016-07-19 03:59:07,0.18,1.44,0.00,28.89,32.11,34.50,13.93,43.92,1010.06,2017.00,2984.62,2699.78,3056.02,599.55,580.23,50.17,0000 0000 0000 0000 000000
2016-07-19 04:04:08,0.01,1.45,0.00,28.92,32.16,34.56,13.98,44.01,1010.15,2016.99,2983.99,2699.02,3055.02,600.02,580.52,50.22,0000 0000 0000 0000 000000
2016-07-19 04:09:09,-0.01,1.45,0.00,28.99,32.21,34.58,13.96,43.87,1010.09,2016.53,2983.31,2698.63,3054.33,599.97,580.43,50.27,0000 0000 0000 0000 000000
2016-07-19 04:14:10,-0.01,1.45,0.00,29.02,32.26,34.63,14.01,43.83,1010.00,2016.11,2982.90,2698.03,3053.99,599.81,580.15,50.32,0000 0000 0000 0000 000000
2016-07-19 04:19:12,0.03,1.45,0.00,29.06,32.31,34.68,14.00,43.98,1010.01,2016.02,2982.12,2697.79,3053.39,600.11,580.40,50.37,0000 0000 0000 0000 000000
2016-07-19 04:24:13,0.03,1.45,0.00,29.12,32.36,34.73,14.00,43.88,1010.04,2016.00,2981.67,2697.06,3052.97,599.90,580.13,50.42,0000 0000 0000 0000 000000
2016-07-19 04:29:14,0.02,1.45,0.00,29.17,32.41,34.78,14.02,43.93,1010.02,2015.97,2981.06,2696.99,3052.38,600.51,580.58,50.47,0000 0000 0000 0000 000000
2016-07-19 04:34:16,-0.00,1.45,0.00,29.21,32.46,34.84,13.91,43.92,1010.10,2015.67,2980.77,2696.41,3051.97,599.42,579.54,50.53,0000 0000 0000 0000 000000
2016-07-19 04:39:17,-0.02,1.45,0.00,29.25,32.51,34.88,13.95,43.83,1010.14,2015.09,2980.07,2696.00,3051.38,600.19,580.15,50.58,0000 0000 0000 0000 000000
2016-07-19 04:44:19,0.02,1.45,0.00,29.31,32.56,34.93,13.98,43.83,1010.18,2015.00,2979.73,2695.71,3050.97,600.05,580.05,50.63,0000 0000 0000 0000 000000
2016-07-19 04:49:20,0.03,1.45,0.00,29.35,32.61,34.99,13.97,44.12,1010.23,2014.96,2979.02,2695.03,3050.28,599.89,579.76,50.68,0000 0000 0000 0000 000000
2016-07-19 04:54:21,-0.02,1.45,0.00,29.41,32.66,35.02,14.02,43.92,1010.22,2014.61,2978.52,2694.91,3049.96,600.12,579.85,50.73,0000 0000 0000 0000 000000
2016-07-19 04:59:22,0.00,1.45,0.00,29.45,32.71,35.07,13.97,43.90,1010.23,2014.09,2978.00,2694.16,3049.25,600.03,579.70,50.78,0000 0000 0000 0000 000000
2016-07-19 05:04:24,0.01,1.45,0.00,29.50,32.76,35.12,14.01,43.89,1010.26,2014.00,2977.42,2693.98,3048.94,600.29,579.94,50.83,0000 0000 0000 0000 000000
2016-07-19 05:09:25,0.03,1.46,0.00,29.55,32.80,35.17,13.96,44.09,1010.26,2013.96,2977.00,2693.37,3048.17,599.74,579.13,50.88,0000 0000 0000 0000 000000
2016-07-19 05:14:26,-0.02,1.45,0.00,29.59,32.85,35.20,13.95,44.17,1010.27,2013.53,2976.30,2693.00,3047.79,599.93,579.20,50.93,0000 0000 0000 0000 000000
2016-07-19 05:19:28,0.00,1.45,0.00,29.65,32.90,35.25,13.96,44.06,1010.27,2013.11,2975.96,2692.70,3047.11,600.13,579.33,50.98,0000 0000 0000 0000 000000
2016-07-19 05:24:29,0.03,1.45,0.00,29.67,32.95,35.30,14.04,44.10,1010.27,2013.00,2975.50,2692.05,3046.74,600.36,579.48,51.03,0000 0000 0000 0000 000000
2016-07-19 05:29:31,0.01,1.46,0.00,29.72,32.99,35.33,14.02,44.12,1010.28,2012.94,2974.90,2691.90,3046.05,600.28,579.44,51.08,0000 0000 0000 0000 000000
2016-07-19 05:34:32,0.01,1.46,0.00,29.78,33.03,35.38,14.05,44.11,1010.29,2012.66,2974.13,2691.19,3045.78,600.24,579.35,51.13,0000 0000 0000 0000 000000
2016-07-19 05:39:33,-0.03,1.46,0.00,29.81,33.08,35.44,13.89,44.08,1010.28,2012.06,2973.68,2690.97,3045.04,599.78,578.84,51.18,0000 0000 0000 0000 000000
2016-07-19 05:44:34,0.04,1.46,0.00,29.87,33.13,35.47,13.91,44.12,1010.29,2012.00,2973.03,2690.29,3044.51,600.02,579.01,51.23,0000 0000 0000 0000 000000
2016-07-19 05:49:35,0.02,1.46,0.00,29.90,33.17,35.52,13.98,44.17,1010.28,2012.00,2972.50,2689.99,3044.01,600.07,578.90,51.28,0000 0000 0000 0000 000000
2016-07-19 05:54:36,0.04,1.46,0.00,29.95,33.22,35.58,14.00,44.07,1010.27,2011.94,2971.91,2689.40,3043.50,600.18,578.90,51.33,0000 0000 0000 0000 000000
2016-07-19 05:59:38,-0.02,1.46,0.00,30.00,33.27,35.62,13.95,44.08,1010.27,2011.53,2971.10,2689.00,3043.00,599.57,578.14,51.38,0000 0000 0000 0000 000000
2016-07-19 06:04:39,-0.01,1.46,0.00,30.05,33.31,35.67,14.00,43.98,1010.28,2011.09,2970.77,2688.74,3042.46,599.78,578.33,51.44,0000 0000 0000 0000 000000
2016-07-19 06:09:40,0.16,1.47,0.00,30.07,33.36,35.71,13.95,43.86,1010.28,2011.01,2968.53,2686.52,3040.30,600.32,578.87,51.49,0000 0000 0000 0000 000000
2016-07-19 06:14:42,0.22,1.47,0.00,30.11,33.40,35.76,13.92,43.83,1010.27,2011.00,2966.53,2684.46,3037.53,599.82,578.23,51.54,0000 0000 0000 0000 000000
2016-07-19 06:19:43,0.26,1.49,0.00,30.15,33.45,35.79,13.97,44.04,1010.27,2010.93,2962.07,2679.37,3031.74,600.26,578.53,51.59,0000 0000 0000 0000 000000
2016-07-19 06:24:44,-0.02,1.49,0.00,30.20,33.49,35.83,13.93,43.91,1010.27,2010.53,2961.21,2678.99,3031.02,599.61,577.95,51.64,0000 0000 0000 0000 000000
2016-07-19 06:29:46,0.02,1.49,0.00,30.23,33.53,35.87,13.95,43.83,1010.28,2010.10,2960.88,2678.54,3030.62,600.22,578.44,51.69,0000 0000 0000 0000 000000
2016-07-19 06:34:47,0.02,1.49,0.00,30.27,33.57,35.92,13.93,43.92,1010.31,2010.01,2960.12,2678.01,3030.02,599.80,577.96,51.74,0000 0000 0000 0000 000000
2016-07-19 06:39:48,0.04,1.49,0.00,30.32,33.61,35.97,13.90,43.92,1010.35,2010.00,2959.49,2677.41,3029.22,600.06,578.02,51.79,0000 0000 0000 0000 000000
2016-07-19 06:44:49,0.25,1.51,0.00,30.34,33.65,36.02,14.01,43.88,1010.37,2009.95,2956.10,2674.06,3025.22,600.31,578.30,51.84,0000 0000 0000 0000 000000
2016-07-19 06:49:51,0.00,1.51,0.00,30.38,33.69,36.06,13.93,44.00,1010.43,2009.54,2955.02,2673.07,3024.18,599.73,577.74,51.89,0000 0000 0000 0000 000000
2016-07-19 06:54:52,0.01,1.51,0.00,30.41,33.73,36.08,13.94,44.02,1010.55,2009.08,2954.13,2672.63,3023.77,599.94,577.95,51.94,0000 0000 0000 0000 000000
2016-07-19 06:59:54,0.03,1.51,0.00,30.44,33.76,36.13,13.89,43.93,1010.67,2009.01,2953.68,2672.05,3023.09,599.78,577.78,51.99,0000 0000 0000 0000 000000
2016-07-19 07:04:55,0.06,1.51,0.00,30.46,33.80,36.16,13.91,43.85,1010.74,2009.00,2952.62,2671.57,3022.40,599.79,577.78,52.04,0000 0000 0000 0000 000000
2016-07-19 07:09:57,0.01,1.51,0.00,30.50,33.84,36.20,13.92,43.88,1010.75,2008.94,2951.88,2670.99,3021.68,599.79,577.75,52.09,0000 0000 0000 0000 000000
2016-07-19 07:14:58,0.00,1.52,0.00,30.52,33.87,36.25,13.98,43.91,1010.76,2008.65,2951.10,2670.48,3021.04,600.13,578.05,52.14,0000 0000 0000 0000 000000
2016-07-19 07:19:59,-0.01,1.51,0.00,30.54,33.91,36.29,14.01,43.90,1010.76,2008.32,2950.74,2670.02,3020.88,600.20,578.07,52.19,0000 0000 0000 0000 000000
2016-07-19 07:25:00,0.01,1.52,0.00,30.57,33.94,36.32,13.89,43.91,1010.76,2008.07,2950.04,2669.90,3020.10,599.88,577.70,52.24,0000 0000 0000 0000 000000
2016-07-19 07:30:02,0.03,1.52,0.00,30.62,33.98,36.34,13.95,43.95,1010.76,2008.00,2949.53,2669.15,3019.97,600.20,577.86,52.29,0000 0000 0000 0000 000000
2016-07-19 07:35:03,0.02,1.52,0.00,30.61,34.01,36.37,13.94,43.92,1010.76,2008.00,2949.01,2669.00,3019.37,599.78,577.57,52.34,0000 0000 0000 0000 000000
2016-07-19 07:40:04,0.01,1.52,0.00,30.63,34.04,36.41,13.96,43.89,1010.76,2008.00,2948.73,2668.94,3019.02,600.14,577.85,52.40,0000 0000 0000 0000 000000
2016-07-19 07:45:05,0.03,1.52,0.00,30.66,34.07,36.45,13.92,43.86,1010.77,2007.99,2948.04,2668.33,3018.91,599.66,577.34,52.45,0000 0000 0000 0000 000000
2016-07-19 07:50:07,0.10,1.52,0.00,30.68,34.10,36.47,13.93,43.74,1010.89,2007.92,2946.97,2667.04,3017.11,600.23,577.96,52.50,0000 0000 0000 0000 000000
2016-07-19 07:55:08,1.37,1.57,0.00,30.71,34.13,36.51,13.97,43.92,1011.12,2007.40,2932.39,2651.40,2999.05,599.56,577.56,52.55,0000 0000 0000 0000 000000
2016-07-19 08:00:09,0.27,1.61,0.00,30.71,34.16,36.54,13.95,43.88,1011.15,2007.02,2924.36,2642.97,2989.19,599.76,577.64,52.60,0000 0000 0000 0000 000000
2016-07-19 08:05:10,0.23,1.61,0.00,30.71,34.20,36.58,13.99,43.77,1011.22,2007.00,2922.04,2640.78,2986.61,600.26,578.08,52.65,0000 0000 0000 0000 000000
2016-07-19 08:10:11,0.22,1.63,0.00,30.73,34.22,36.61,13.93,43.93,1011.23,2007.00,2917.67,2637.05,2982.01,599.98,577.84,52.70,0000 0000 0000 0000 000000
2016-07-19 08:15:13,0.07,1.63,0.00,30.75,34.25,36.62,13.95,44.02,1011.22,2006.99,2916.37,2636.02,2980.82,599.85,577.64,52.75,0000 0000 0000 0000 000000
2016-07-19 08:20:14,0.10,1.64,0.00,30.77,34.28,36.66,13.99,44.02,1011.23,2006.93,2914.90,2634.76,2979.47,599.85,577.62,52.80,0000 0000 0000 0000 000000
2016-07-19 08:25:15,0.47,1.66,0.00,30.78,34.31,36.67,13.91,43.83,1011.24,2006.78,2909.26,2629.17,2972.87,599.81,577.53,52.85,0000 0000 0000 0000 000000
2016-07-19 08:30:16,0.09,1.67,0.00,30.80,34.34,36.68,13.94,43.86,1011.24,2006.30,2906.30,2626.27,2969.44,599.77,577.45,52.90,0000 0000 0000 0000 000000
2016-07-19 08:35:17,0.11,1.67,0.00,30.81,34.36,36.75,13.90,44.00,1011.23,2006.05,2904.39,2624.51,2967.40,599.59,577.28,52.95,0000 0000 0000 0000 000000
2016-07-19 08:40:18,0.06,1.68,0.00,30.83,34.39,36.77,13.91,44.17,1011.23,2006.02,2903.11,2623.51,2966.16,600.06,577.61,53.00,0000 0000 0000 0000 000000
2016-07-19 08:45:19,0.04,1.68,0.00,30.82,34.42,36.78,13.95,44.13,1011.23,2006.00,2902.18,2623.01,2965.53,600.12,577.73,53.05,0000 0000 0000 0000 000000
2016-07-19 08:50:21,0.06,1.68,0.00,30.84,34.45,36.82,13.91,43.94,1011.20,2006.00,2901.29,2622.38,2964.68,599.91,577.47,53.10,0000 0000 0000 0000 000000
2016-07-19 08:55:22,0.05,1.69,0.00,30.85,34.47,36.84,13.97,43.91,1011.15,2005.99,2900.12,2621.65,2963.75,599.74,577.29,53.15,0000 0000 0000 0000 000000
2016-07-19 09:00:24,0.03,1.69,0.00,30.89,34.50,36.85,13.92,43.98,1011.21,2005.94,2899.36,2621.00,2962.95,599.92,577.38,53.20,0000 0000 0000 0000 000000
2016-07-19 09:05:25,0.03,1.69,0.00,30.89,34.52,36.89,13.99,44.00,1011.22,2005.70,2898.38,2620.23,2962.10,600.13,577.60,53.25,0000 0000 0000 0000 000000
2016-07-19 09:10:26,0.05,1.69,0.00,30.92,34.55,36.90,13.95,43.96,1011.20,2005.35,2897.16,2619.29,2960.84,600.34,577.75,53.30,0000 0000 0000 0000 000000
2016-07-19 09:15:27,0.27,1.70,0.00,30.92,34.57,36.95,13.92,44.01,1011.20,2005.05,2893.56,2615.68,2956.71,599.92,577.41,53.36,0000 0000 0000 0000 000000
2016-07-19 09:20:29,0.08,1.71,0.00,30.93,34.59,36.95,13.97,43.98,1011.19,2005.00,2891.67,2614.01,2954.80,599.88,577.21,53.41,0000 0000 0000 0000 000000
2016-07-19 09:25:30,0.07,1.71,0.00,30.95,34.61,36.97,13.88,43.93,1011.16,2005.00,2890.36,2613.09,2953.69,599.74,577.15,53.46,0000 0000 0000 0000 000000
2016-07-19 09:30:31,0.29,1.72,0.00,30.96,34.63,37.00,13.96,43.76,1011.18,2005.00,2887.18,2610.14,2950.17,600.08,577.42,53.51,0000 0000 0000 0000 000000
2016-07-19 09:35:32,0.16,1.74,0.00,30.97,34.65,37.04,13.87,43.81,1011.24,2004.97,2883.87,2607.10,2946.57,599.69,577.12,53.56,0000 0000 0000 0000 000000
2016-07-19 09:40:33,0.05,1.74,0.00,30.99,34.67,37.04,13.91,43.92,1011.24,2004.86,2882.80,2606.15,2945.74,599.55,576.93,53.61,0000 0000 0000 0000 000000
2016-07-19 09:45:35,0.02,1.74,0.00,31.01,34.69,37.08,13.93,44.01,1011.24,2004.61,2881.74,2605.63,2944.94,599.96,577.30,53.66,0000 0000 0000 0000 000000
2016-07-19 09:50:36,0.03,1.74,0.00,31.02,34.71,37.11,13.95,43.91,1011.24,2004.30,2880.41,2604.74,2943.98,600.22,577.46,53.71,0000 0000 0000 0000 000000
2016-07-19 09:55:38,0.15,1.75,0.00,31.02,34.73,37.14,13.92,43.95,1011.24,2004.05,2878.22,2603.00,2942.01,599.85,577.13,53.76,0000 0000 0000 0000 000000
2016-07-19 10:00:39,0.09,1.76,0.00,31.04,34.75,37.13,13.99,43.75,1011.25,2004.01,2876.46,2601.56,2940.30,600.32,577.64,53.81,0000 0000 0000 0000 000000
2016-07-19 10:05:40,0.10,1.76,0.00,31.06,34.77,37.16,13.95,43.88,1011.25,2004.00,2874.72,2600.31,2938.81,600.06,577.24,53.86,0000 0000 0000 0000 000000
2016-07-19 10:10:41,0.08,1.77,0.00,31.07,34.79,37.18,13.99,43.86,1011.25,2004.00,2873.27,2599.21,2937.60,600.20,577.29,53.91,0000 0000 0000 0000 000000
2016-07-19 10:15:43,0.09,1.77,0.00,31.07,34.81,37.22,13.92,43.93,1011.25,2004.00,2871.57,2598.09,2936.37,599.93,577.15,53.96,0000 0000 0000 0000 000000
2016-07-19 10:20:44,0.08,1.77,0.00,31.08,34.83,37.24,13.95,43.86,1011.25,2004.00,2870.04,2596.98,2935.06,600.02,577.16,54.01,0000 0000 0000 0000 000000
2016-07-19 10:25:46,0.11,1.78,0.00,31.08,34.85,37.24,13.95,43.87,1011.25,2003.99,2868.40,2595.82,2933.66,599.99,577.14,54.06,0000 0000 0000 0000 000000
2016-07-19 10:30:47,0.16,1.79,0.00,31.09,34.86,37.29,13.98,43.92,1011.25,2003.97,2865.58,2594.06,2931.62,600.31,577.39,54.11,0000 0000 0000 0000 000000
2016-07-19 10:35:48,0.14,1.79,0.00,31.10,34.88,37.30,13.96,43.86,1011.26,2003.96,2862.62,2592.40,2929.69,599.68,576.85,54.16,0000 0000 0000 0000 000000
2016-07-19 10:40:49,0.07,1.80,0.00,31.10,34.90,37.34,13.93,43.75,1011.27,2003.94,2860.84,2591.18,2928.48,600.20,577.30,54.21,0000 0000 0000 0000 000000
2016-07-19 10:45:50,0.05,1.80,0.00,31.12,34.92,37.36,13.98,43.71,1011.36,2003.89,2859.83,2590.50,2927.70,600.16,577.27,54.27,0000 0000 0000 0000 000000
2016-07-19 10:50:51,0.07,1.81,0.00,31.13,34.93,37.37,13.97,43.64,1011.67,2003.94,2858.63,2589.81,2926.77,600.07,577.36,54.32,0000 0000 0000 0000 000000
2016-07-19 10:55:53,0.10,1.81,0.00,31.14,34.95,37.39,14.02,43.97,1011.81,2003.82,2857.23,2588.54,2925.40,600.07,577.48,54.37,0000 0000 0000 0000 000000
2016-07-19 11:00:54,0.09,1.82,0.00,31.14,34.95,37.44,13.93,44.18,1011.76,2003.92,2855.52,2587.25,2924.01,600.23,577.53,54.42,0000 0000 0000 0000 000000
2016-07-19 11:05:55,0.04,1.82,0.00,31.12,34.97,37.45,13.97,43.88,1011.75,2003.89,2854.51,2586.78,2923.14,600.05,577.40,54.47,0000 0000 0000 0000 000000
2016-07-19 11:10:56,0.04,1.82,0.00,31.12,34.97,37.50,13.94,43.86,1011.73,2003.93,2853.69,2586.06,2922.89,599.76,577.12,54.52,0000 0000 0000 0000 000000
2016-07-19 11:15:57,0.02,1.82,0.00,31.13,34.98,37.51,13.96,43.79,1011.73,2003.94,2852.98,2585.96,2922.18,599.91,577.22,54.57,0000 0000 0000 0000 000000
2016-07-19 11:20:59,0.04,1.83,0.00,31.13,34.98,37.52,13.97,43.74,1011.73,2003.94,2852.16,2585.27,2921.96,599.97,577.35,54.62,0000 0000 0000 0000 000000
2016-07-19 11:26:00,0.02,1.83,0.00,31.13,34.99,37.52,13.97,43.71,1011.73,2003.93,2851.80,2585.01,2921.26,600.19,577.51,54.67,0000 0000 0000 0000 000000
2016-07-19 11:31:01,0.01,1.83,0.00,31.13,34.99,37.53,13.92,43.67,1011.72,2003.93,2851.06,2584.95,2921.00,600.03,577.35,54.72,0000 0000 0000 0000 000000
2016-07-19 11:36:02,0.06,1.83,0.00,31.14,35.00,37.52,13.92,43.71,1011.73,2003.88,2850.41,2584.25,2920.54,600.37,577.63,54.77,0000 0000 0000 0000 000000
2016-07-19 11:41:04,0.02,1.83,0.00,31.14,35.00,37.52,13.91,43.70,1011.71,2003.92,2849.67,2583.99,2920.01,599.91,577.15,54.82,0000 0000 0000 0000 000000
2016-07-19 11:46:05,0.01,1.83,0.00,31.14,35.00,37.54,13.94,43.73,1011.52,2003.85,2848.94,2583.77,2919.79,600.30,577.51,54.87,0000 0000 0000 0000 000000
2016-07-19 11:51:06,0.08,1.84,0.00,31.15,35.00,37.58,13.91,43.66,1011.29,2003.86,2847.72,2582.97,2918.84,599.74,576.78,54.92,0000 0000 0000 0000 000000
2016-07-19 11:56:08,0.04,1.84,0.00,31.13,35.00,37.57,13.96,43.73,1011.26,2003.76,2846.92,2582.16,2918.05,600.12,577.32,54.97,0000 0000 0000 0000 000000
2016-07-19 12:01:09,-0.01,1.84,0.00,31.13,35.01,37.58,14.02,43.74,1011.26,2003.57,2846.10,2582.00,2917.84,600.24,577.28,55.02,0000 0000 0000 0000 000000
2016-07-19 12:06:10,0.00,1.84,0.00,31.14,35.02,37.62,13.96,43.77,1011.26,2003.32,2845.90,2581.89,2917.16,599.82,576.87,55.07,0000 0000 0000 0000 000000
2016-07-19 12:11:11,0.03,1.84,0.00,31.12,35.02,37.62,13.88,43.74,1011.28,2003.16,2845.20,2581.30,2917.00,599.84,577.01,55.12,0000 0000 0000 0000 000000
2016-07-19 12:16:13,0.00,1.84,0.00,31.12,35.02,37.62,14.02,43.76,1011.39,2003.10,2844.98,2581.01,2916.85,600.26,577.37,55.17,0000 0000 0000 0000 000000
2016-07-19 12:21:14,0.06,1.84,0.00,31.10,35.02,37.63,13.98,43.77,1011.56,2003.19,2844.26,2580.94,2916.13,599.68,576.97,55.23,0000 0000 0000 0000 000000
2016-07-19 12:26:15,0.02,1.84,0.00,31.10,35.02,37.67,14.02,43.85,1011.69,2003.17,2843.38,2580.27,2915.97,600.24,577.58,55.28,0000 0000 0000 0000 000000
2016-07-19 12:31:16,0.03,1.85,0.00,31.11,35.03,37.66,13.97,43.83,1011.73,2003.15,2843.00,2580.01,2915.46,600.28,577.64,55.33,0000 0000 0000 0000 000000
2016-07-19 12:36:18,0.03,1.85,0.00,31.10,35.03,37.66,13.98,43.86,1011.73,2003.23,2842.39,2579.98,2915.02,600.19,577.48,55.38,0000 0000 0000 0000 000000
2016-07-19 12:41:19,0.05,1.85,0.00,31.08,35.04,37.70,14.00,43.88,1011.70,2003.47,2841.89,2579.66,2914.97,600.17,577.56,55.43,0000 0000 0000 0000 000000
2016-07-19 12:46:20,0.04,1.85,0.00,31.07,35.05,37.71,13.96,43.64,1011.70,2003.60,2841.15,2579.12,2914.48,600.26,577.71,55.48,0000 0000 0000 0000 000000
2016-07-19 12:51:22,0.00,1.85,0.00,31.06,35.05,37.74,13.98,43.68,1011.73,2003.40,2840.74,2579.00,2914.02,599.98,577.41,55.53,0000 0000 0000 0000 000000
2016-07-19 12:56:23,0.02,1.85,0.00,31.06,35.05,37.72,13.98,43.63,1011.73,2003.51,2840.04,2578.89,2913.88,600.13,577.61,55.58,0000 0000 0000 0000 000000